Regional Weather Roundup
Issued by NWS

Home | Current Version | Previous Version | Text Only | Print | Product List | Glossary Off
Versions: 1 2 3 4 5 6 7 8 9 10 11 12 13 14 15 16 17 18 19 20 21 22 23 24 25 26 27 28 29 30 31 32 33 34 35 36 37 38 39 40 41 42 43 44 45 46 47 48 49 50

000
ASUS43 KMKX 221520
RWRWI

WISCONSIN REGIONAL WEATHER ROUNDUP
NATIONAL WEATHER SERVICE MILWAUKEE/SULLIVAN WI
900 AM CST MON JAN 22 2018

NOTE: "FAIR" INDICATES FEW OR NO CLOUDS BELOW 12,000 FEET WITH NO
SIGNIFICANT WEATHER AND/OR OBSTRUCTIONS TO VISIBILITY.

WIZ001-002-006>008-014>016-023>028-221600-
NORTHWEST WISCONSIN

CITY           SKY/WX    TMP DP  RH WIND       PRES   REMARKS
SUPERIOR ARPT  CLOUDY    27  26  96 NE16G29   29.99F WCI  15
ASHLAND        LGT SNOW  28  27  96 NE23      29.96F FOG     WCI  14
HAYWARD        CLOUDY    29  25  85 NE16G26   29.86F WCI  17
SIREN          CLOUDY    30  25  81 NE14G23   29.85F WCI  19
CUMBERLAND     CLOUDY    30  25  80 NE16G26   29.79F WCI  19
RICE LAKE      CLOUDY    31  28  86 N16       29.81S WCI  20
CHETEK         NOT AVBL
LADYSMITH      CLOUDY    32  28  86 NE16G24   29.80F WCI  21
EAU CLAIRE     SNOW      33  30  88 NE17G24   29.72F VSB 1/2 WCI  22
MENOMONIE      CLOUDY    34  29  83 N20       29.75F WCI  23
NEW RICHMOND   CLOUDY    31  26  80 NE17G24   29.77F WCI  20
OSCEOLA        CLOUDY    32  27  81 N14       29.82F WCI  22
$$

WIZ003>005-009-010-017-018-221600-
NORTH CENTRAL WISCONSIN

CITY           SKY/WX    TMP DP  RH WIND       PRES   REMARKS
MANITOWISH WTR CLOUDY    27  27 100 NE15G23   29.85F WCI  15
ARBOR VITAE    CLOUDY    32  30  92 NE9G18    29.83F WCI  24
WOODRUFF       CLOUDY    32  30  92 NE9G18    29.83F WCI  24
RHINELANDER    CLOUDY    31  29  92 E15G26    29.81F WCI  20
EAGLE RIVER    CLOUDY    29  29  99 NE12G18   29.84F WCI  20
LAND O LAKES   CLOUDY    28  28  99 NE10G18   29.88F FOG     WCI  19
PHILLIPS       CLOUDY    29  28  94 NE18G25   29.80F WCI  17
TOMAHAWK       CLOUDY    31  28  86 NE12G18   29.79F WCI  22
MEDFORD        LGT SNOW  32  29  90 NE16G25   29.74S WCI  21
MERRILL        LGT SNOW  33  31  92 NE14G21   29.77S WCI  23
$$

WIZ029-030-035-036-043>047-221600-
CENTRAL WISCONSIN

CITY           SKY/WX    TMP DP  RH WIND       PRES   REMARKS
WAUSAU         LGT SNOW  33  31  92 NE13      29.72S VSB 3/4 WCI  24
MOSINEE        LGT SNOW  34  32  93 NE17G24   29.72F WCI  23
MARSHFIELD     LGT SNOW  33  32  96 NE18G24   29.68F FOG     WCI  22
STEVENS POINT  MIX PCPN  32  32 100 NE14G26   29.71S WCI  22
WAUPACA        LGT RAIN  36  33  90 NE9G22    29.72F WCI  29
WAUTOMA        LGT RAIN  34  32  92 NE18      29.66  WCI  23
WISC RAPIDS    RAIN      34  34 100 E15G24    29.69S FOG     WCI  24
CAMP DOUGLAS   LGT RAIN  35  35  99 NE14      29.63F FOG     WCI  25
$$

WIZ011>013-019>022-031-037>040-048>050-221600-
NORTHEAST WISCONSIN

CITY           SKY/WX    TMP DP  RH WIND       PRES   REMARKS
ANTIGO         LGT SNOW  31  30  96 NE22      29.76F WCI  18
SHAWANO        LGT SNOW  35  32  90 NE17G24   29.76F WCI  24
OCONTO         CLOUDY    33  32  97 NE14G24   29.79F WCI  23
STURGEON BAY   LGT SNOW  35  34  96 NE18G25   29.79F FOG     WCI  24
GREEN BAY      MIX PCPN  34  32  92 NE25G33   29.74F FOG     WCI  21
MANITOWOC      RAIN      36  35  96 NE13G23   29.73F FOG     WCI  27
APPLETON       LGT RAIN  34  34 100 NE18G31   29.70F WCI  23
CLINTONVILLE   LGT RAIN  34  32  93 E17G25    29.74F WCI  23
OSHKOSH        LGT RAIN  35  34  96 NE14      29.68F FOG     WCI  26
$$

WIZ032>034-041-042-053>061-221600-
SOUTHWEST WISCONSIN

CITY           SKY/WX    TMP DP  RH WIND       PRES   REMARKS
LA CROSSE      LGT RAIN  38  34  85 NE9G23    29.63F WCI  31
SPARTA         LGT RAIN  34  33  96 E15G23    29.65F WCI  24
VIROQUA        CLOUDY    34  34 100 E22G28    29.57F WCI  22
BOSCOBEL       LGT RAIN  37  37 100 NE9       29.57F FOG     WCI  30
PRAIRIE DU CHI DRIZZLE   37  34  90 E5        29.55F WCI  33
PLATTEVILLE    CLOUDY    37  37 100 NE14G21   29.53F WCI  29
$$

WIZ056-057-062-063-064-067-068-221600-
SOUTH CENTRAL WISCONSIN

CITY           SKY/WX    TMP DP  RH WIND       PRES   REMARKS
REEDSBURG      CLOUDY    34  34 100 NE13G25   29.61F WCI  25
BARABOO/DELLS  CLOUDY    33  33  98 NE15G22   29.60F WCI  23
LONE ROCK      LGT RAIN  37  36  96 E12       29.59S VSB 1/2 WCI  29
MINERAL POINT  LGT RAIN  37  37 100 NE17G23   29.54F WCI  28
MADISON        CLOUDY    37  36  96 NE16G33   29.53F WCI  28
MIDDLETON      CLOUDY    38  38  99 N8        29.60R WCI  32
WATERTOWN      LGT RAIN  37  37 100 NE14      29.60F WCI  28
MONROE         CLOUDY    36  36 100 N5        29.57S WCI  32
JANESVILLE     CLOUDY    39  39 100 E23G29    29.52F WCI  29
$$

WIZ051-052-058>065-066-070>072-221600-
SOUTHEAST WISCONSIN

CITY           SKY/WX    TMP DP  RH WIND       PRES   REMARKS
MILWAUKEE      RAIN      39  38  96 NE13G21   29.61F FOG     WCI  31
WAUKESHA       RAIN      36  36 100 NE15      29.63F FOG     WCI  26
MILWAUKEE/TIMM RAIN      36  34  93 NE15      29.64F WCI  26
RACINE         LGT RAIN  40  40 100 E10       29.61F VSB 3/4 WCI  33
BURLINGTON     MIX PCPN  38  37  96 E9        29.58F WCI  31
KENOSHA        LGT RAIN  43  42  97 E6        29.59S
FOND DU LAC    HVY RAIN  37  34  89 NE13G22   29.68F FOG     WCI  29
SHEBOYGAN      RAIN      36  36 100 NE21      29.68F FOG     WCI  25
WEST BEND      RAIN      36  36 100 NE17      29.65S WCI  25
JUNEAU         RAIN      36  35  97 NE14      29.65S WCI  27
$$

LSZ147-162-221600-
LAKE SUPERIOR

STATION/POSITION TIME  TEMP    WIND        PRES    WAVE
                       AIR SEA DIR/SP/G            HT/PER
                 (UTC) (F)     (DEG/KT/KT) (MB)    (FT/S)
DEVILS ISLAND    1500   26      50/ 23/ 25 1017.5F
SAXON HARBOR     1444   30      50/ 22/ 25 1013.9F
$$

LMZ867-665-643>646-221600-
LAKE MICHIGAN

STATION/POSITION TIME  TEMP    WIND        PRES    WAVE
                       AIR SEA DIR/SP/G            HT/PER
                 (UTC) (F)     (DEG/KT/KT) (MB)    (FT/S)
NORTHPORT PIER   1506   34      50/  2/ 16 1011.2
KEWAUNEE LAKESHO 1454   36      40/ 14/ 20 1007.3F
SHEBOYGAN LAKESH 1500   36      30/ 19/ 21 1005.7F
PORT WASHINGTON  1430   37      30/ 14/ 19 1005.8F
MILWAUKEE LAKESH 1500   37      20/ 12/ 13   N/A
KENOSHA   LAKESH 1500   39     120/ 10/ 16 1002.4
$$

TC  - TEMPERATURE IN CELSIUS
VSB - VISIBILITY IN STATUTE MILES
WCI - WIND CHILL INDEX
HX  - HEAT INDEX





USA.gov is the U.S. government's official web portal to all federal, state and local government web resources and services.